Weather Roundup
Issued by NWS Sterling, VA

Home | Current Version | Previous Version | Text Only | Print | Product List | Glossary On
Versions: 1 2 3 4 5 6 7 8 9 10 11 12 13 14 15 16 17 18 19 20 21 22 23 24 25 26 27 28 29 30 31 32 33 34 35 36 37 38 39 40 41 42 43 44 45 46 47 48 49 50
000
NZUS51 KLWX 242212
HRRLWX

HOURLY OBSERVATIONS AROUND THE LWX CWA
600 PM EDT SUN MAY 24 2020

Note: "FAIR" indicates few or no clouds below 12,000 feet
with no significant weather and/or obstructions to visibility.

 * =Non NWS site. Station does not report significant weather
    and/or obstructions to visibility.

...DOWNTOWN AREAS...

CITY           SKY/WX    TMP DP  RH WIND       PRES   REMARKS
WASHINGTON NAT CLOUDY    65  58  78 SE9       30.19S
BALT INNER HAR   N/A     65  56  72 MISG      30.18F


...WASHINGTON SUBURBS...

CITY           SKY/WX    TMP DP  RH WIND       PRES   REMARKS
DULLES         CLOUDY    67  58  72 SE5       30.17F
MANASSAS*      CLOUDY    65  59  81 SE6       30.18S
LEESBURG*      CLOUDY    64  59  82 E6        30.18S
GAITHERSBURG*  CLOUDY    65  58  78 SE6       30.19F
FT BELVOIR     CLOUDY    65  58  77 E3        30.18R
QUANTICO       CLOUDY    65  58  78 CALM      30.18F
ANDREWS AFB    CLOUDY    62  57  82 E7        30.18F

...CENTRAL VIRGINIA...

CITY           SKY/WX    TMP DP  RH WIND       PRES   REMARKS
CULPEPER*      CLOUDY    66  59  79 CALM      30.19S
CHARLOTTESVILL CLOUDY    68  61  78 E6        30.16S
WARRENTON*     CLOUDY    66  58  76 CALM      30.18R
ORANGE*        CLOUDY    63  59  88 E6        30.18R
GORDONSVILLE*  CLOUDY    65  63  94 NE7       30.17S
FREDERICKSBRG* CLOUDY    65  61  87 E5        30.17S
LOUISA*        CLOUDY    64  59  86 E6        30.21S
ASHLAND        CLOUDY    67  59  75 E5        30.17F
RICHMOND       CLOUDY    67  60  78 E10       30.15F

...NORTHEAST/CENTRAL MARYLAND...

CITY           SKY/WX    TMP DP  RH WIND       PRES   REMARKS
BWI AIRPORT    CLOUDY    64  56  75 E7        30.18F
ANNAPOLIS      CLOUDY    63  57  81 SE6       30.17F
MARTIN AIRPORT CLOUDY   N/A N/A N/A NE5       30.20F
ABERDEEN*      CLOUDY    65  57  74 SE7       30.18F
FREDERICK*     CLOUDY    68  61  77 E5        30.18S

...SOUTHERN MARYLAND...

CITY           SKY/WX    TMP DP  RH WIND       PRES   REMARKS
PATUXENT RIVER CLOUDY    63  58  83 E5        30.16F

...MARYLAND EASTERN SHORE...

CITY           SKY/WX    TMP DP  RH WIND       PRES   REMARKS
SALISBURY      CLOUDY    60  52  74 NE10      30.19F
OCEAN CITY     CLOUDY    56  52  86 NE15G23   30.20F
EASTON*        CLOUDY    66  59  77 E7        30.21F

...SHENANDOAH VALLEY...

CITY           SKY/WX    TMP DP  RH WIND       PRES   REMARKS
MARTINSBURG    CLOUDY    65  58  78 E7        30.16S
HAGERSTOWN APT CLOUDY    67  59  75 E7        30.16F
STAUNTON*      CLOUDY    67  63  89 SE6       30.17S
WINCHESTER*    CLOUDY    63  59  88 E6        30.16R
FRONT ROYAL*   CLOUDY    64  61  88 E3        30.15S
LURAY*         CLOUDY    66  63  88 NE6       30.15S
NEW MARKET*    CLOUDY    67  66  97 N6        30.14S
WAYNESBORO*    PTSUNNY   65  64  96 SE8       30.16F

...APPALACHIANS...

CITY           SKY/WX    TMP DP  RH WIND       PRES   REMARKS
PETERSBURG WV* CLOUDY    71  68  91 N3        30.13F
ELKINS         FAIR      78  63  59 CALM      30.11F
BEDFORD PA*    CLOUDY    64  60  86 SE8       30.15S
JOHNSTOWN      CLOUDY    65  58  78 SE9       30.15S
ALTOONA        CLOUDY    67  59  75 S9        30.16S

...SOUTHERN PENNSYLVANIA/DELAWARE...

CITY           SKY/WX    TMP DP  RH WIND       PRES   REMARKS
YORK           CLOUDY    67  57  70 SE6       30.17F
WILMINGTON     CLOUDY    67  56  67 E10       30.20S

...MARINE OBSERVATIONS...

STATION/POSITION TIME  TEMP    WIND        PRES
                       AIR SEA DIR/SP/G
                 (UTC) (F)     (DEG/KT/KT) (MB)
THOMAS PT LIGHT  2200   61 62  350/  4/  4 1022.7F
TOLCHESTER       2130   65 64  160/  4/  6 1022.6F
COVE POINT       2124           60/  9/ 11 1022.4
GOOSES REEF      2154   62      40/  6/  6   N/A
BALT HARBOR      2124          220/  4/  5   N/A
BALT KEY BRIDGE  2124   62     170/  7/  8 1022.5
WASH DC CHANNEL  2124   65 66   90/  4/  8 1022.0
DAHLGREN         2130   65 68  100/  5/  5 1021.0F
LEWISETTA        2124   63 66  100/  9/ 11 1022.0
SOLOMONS ISLAND  2124   63 64   10/  5/  7 1021.8
PINEY POINT      2124           90/  6/ 10   N/A
POTOMAC BUOY     2154   62      40/  6/ 10 1022.2F
CAMBRIDGE PIER   2124   64 65   50/  9/ 10 1022.3
BISHOPS HEAD     2124   65 68   70/  7/ 11 1021.9




USA.gov is the U.S. government's official web portal to all federal, state and local government web resources and services.